FW9619 Weather Reports


time (UTC)temp
F
wind
direction
speed
knots
gust
knots
rain 1hr
in
rain 24hr
in
rain mn
in
humidity
%
barometer
mb
20260505100042 62 47 15.6 28.7 0.00 0.00 0.00 70 1009.2
20260505094538 65 196 2.6 14.8 0.00 0.00 0.00 74 1008.2
20260505093040 65 0 0.9 6.1 0.00 0.00 0.00 74 1007.5
20260505091544 65 211 1.7 5.2 0.00 0.00 0.00 73 1006.6
20260505090038 65 184 0.0 4.3 0.00 0.00 0.00 74 1005.5
20260505084541 64 213 1.7 4.3 0.00 0.00 0.00 75 1005.2
20260505083040 63 148 1.7 4.3 0.00 0.00 0.00 77 1005.3
20260505081538 62 198 1.7 2.6 0.00 0.00 0.00 80 1005.8
20260505080038 62 0 0.0 2.6 0.00 0.00 0.00 82 1005.9
20260505074537 63 225 0.9 1.7 0.00 0.00 0.00 82 1006.2
20260505073037 63 225 0.0 1.7 0.00 0.00 0.00 79 1006.5
20260505071545 63 0 0.0 0.0 0.00 0.00 0.00 78 1007.0
20260505070047 64 0 0.0 0.9 0.00 0.00 0.00 76 1007.3
20260505064537 64 0 0.0 0.9 0.00 0.00 0.00 75 1007.3
20260505063039 64 0 0.0 1.7 0.00 0.00 0.00 73 1006.9
20260505061602 65 0 0.9 5.2 0.00 0.00 0.00 72 1006.6
20260505060042 64 223 0.9 5.2 0.00 0.00 0.00 74 1006.1
20260505054541 62 162 1.7 3.5 0.00 0.00 0.00 79 1005.9
20260505053043 63 194 1.7 4.3 0.00 0.00 0.00 78 1006.4
20260505051557 65 0 0.0 0.0 0.00 0.00 0.00 73 1006.4
20260505041537 70 0 0.0 6.1 0.00 0.00 0.00 62 1007.1
20260505040040 70 182 1.7 7.0 0.00 0.00 0.00 62 1007.1
20260505034534 71 184 2.6 9.6 0.00 0.00 0.00 60 1007.2
20260505033033 71 240 2.6 8.7 0.00 0.00 0.00 61 1007.2
20260505031540 70 207 2.6 4.3 0.00 0.00 0.00 61 1007.1
20260505030039 70 213 0.9 5.2 0.00 0.00 0.00 64 1007.0
20260505024544 71 0 0.0 3.5 0.00 0.00 0.00 64 1007.1
20260505023035 70 252 0.9 3.5 0.00 0.00 0.00 61 1006.9
20260505021539 71 0 0.0 2.6 0.00 0.00 0.00 61 1006.5
20260505020042 71 225 0.9 3.5 0.00 0.00 0.00 61 1006.1
20260505014540 71 154 0.9 3.5 0.00 0.00 0.00 63 1005.9
20260505013035 72 170 1.7 3.5 0.00 0.00 0.00 61 1005.6
20260505011534 74 218 0.9 3.5 0.00 0.00 0.00 58 1005.5
20260505010038 75 188 0.9 6.1 0.00 0.00 0.00 54 1005.2
20260505004541 76 196 2.6 7.8 0.00 0.00 0.00 52 1005.1
20260505003038 77 222 3.5 12.2 0.00 0.00 0.00 51 1005.0
20260505001538 78 215 4.3 12.2 0.00 0.00 0.00 50 1004.9
20260505000043 78 205 4.3 13.0 0.00 0.00 0.00 48 1005.0
20260504234537 79 184 7.0 14.8 0.00 0.00 0.00 47 1005.1
20260504233043 79 192 8.7 17.4 0.00 0.00 0.00 47 1005.1
20260504231544 80 190 6.1 13.0 0.00 0.00 0.00 47 1005.2
20260504230050 80 227 4.3 16.5 0.00 0.00 0.00 47 1005.4
20260504224537 79 236 7.0 16.5 0.00 0.00 0.00 47 1005.4
20260504223038 80 216 7.0 20.0 0.00 0.00 0.00 45 1005.6
20260504221533 81 212 6.1 20.0 0.00 0.00 0.00 46 1005.6
20260504220042 81 248 7.8 15.6 0.00 0.00 0.00 44 1005.5
20260504214538 81 217 7.8 21.7 0.00 0.00 0.00 44 1005.7
20260504213038 81 228 7.0 18.2 0.00 0.00 0.00 42 1005.6
20260504211539 81 169 7.0 15.6 0.00 0.00 0.00 43 1005.6
20260504210042 81 209 10.4 21.7 0.00 0.00 0.00 44 1005.6
20260504204547 82 188 9.6 20.0 0.00 0.00 0.00 44 1006.0
20260504203053 81 206 7.8 19.1 0.00 0.00 0.00 44 1006.2
20260504201538 81 234 8.7 21.7 0.00 0.00 0.00 44 1006.3
20260504200038 81 225 8.7 19.1 0.00 0.00 0.00 44 1006.3
20260504194537 81 226 9.6 20.9 0.00 0.00 0.00 44 1006.4
20260504193041 80 225 11.3 22.6 0.00 0.00 0.00 44 1006.5
20260504191541 80 186 9.6 17.4 0.00 0.00 0.00 47 1006.7
20260504190054 80 203 7.8 17.4 0.00 0.00 0.00 45 1006.9
20260504184538 80 227 6.1 20.9 0.00 0.00 0.00 45 1007.2
20260504183035 80 221 3.5 11.3 0.00 0.00 0.00 47 1007.3
20260504181535 79 209 7.0 17.4 0.00 0.00 0.00 47 1007.3
20260504180036 79 245 7.8 18.2 0.00 0.00 0.00 46 1007.4
20260504174540 80 207 7.0 17.4 0.00 0.00 0.00 44 1007.4
20260504173038 80 204 8.7 23.5 0.00 0.00 0.00 44 1007.3
20260504171538 79 208 8.7 20.9 0.00 0.00 0.00 46 1007.3